sat.trackr.live / text

‹ back to catalog

MORELOS 3

NORAD 40946 · 2015-056A

PAYLOAD ACTIVE UNKNOWN

§ Identity

Operator
Country
MEX
Launch date
2015-10-02
Launch site
AFETR
Launch vehicle
Mass (kg)
RCS (m²)
25.04

Purposes: comms

External: N2YO · Heavens-Above · Gunter

§ Orbital elements

Epoch: 2026-05-25T03:12:18.412416Z

Period
1,436.09 min
Inclination
3.1690°
Eccentricity
0.0002221
Mean motion
1.00272172 rev/d
Perigee alt
35,777.1 km
Apogee alt
35,795.9 km
Semi-major
42,164.6 km
B*
0.0000e+0
RAAN
14.4501°
Arg perigee
357.6601°
Mean anomaly
165.5970°
Rev number
3,905

§ Raw data

MORELOS 31 40946U 15056A   26145.13354644 -.00000047  00000+0  00000+0 0  99982 40946   3.1690  14.4501 0002221 357.6601 165.5970  1.00272172 39056

JSON: /api/v1/satellites/40946 · /tle

For live sub-satellite position, see the globe view (requires WebGL).

§ Visibility from observer

Set your observer location to see the next 7 days of passes ≥ 10°. The values pass through the URL so the page stays shareable.

No JS? Fill the form by hand. The geolocation button needs JavaScript.